FW4373 Weather Reports


time (UTC)temp
C
wind
direction
speed
KPH
gust
KPH
rain 1hr
cm
rain 24hr
cm
rain mn
cm
humidity
%
barometer
mb
20260507130031 14 0 0.0 6.4 0.00 0.00 0.00 47 1016.1
20260507124529 15 0 1.6 12.9 0.00 0.00 0.00 46 1016.2
20260507123028 14 0 0.0 0.0 0.00 0.00 0.00 49 1016.2
20260507121526 14 0 0.0 0.0 0.00 0.00 0.00 49 1016.1
20260507120028 14 0 0.0 0.0 0.00 0.00 0.00 50 1016.2
20260507114529 15 0 0.0 6.4 0.00 0.00 0.00 48 1016.2
20260507113028 15 82 0.0 8.0 0.00 0.00 0.00 49 1016.3
20260507111528 13 0 0.0 3.2 0.00 0.00 0.00 47 1016.3
20260507091537 12 0 0.0 1.6 0.00 0.00 0.00 70 1016.7
20260507083026 10 105 3.2 8.0 0.00 0.00 0.00 80 1016.9
20260507081528 10 0 0.0 4.8 0.00 0.00 0.00 82 1016.9
20260507080027 9 100 1.6 6.4 0.00 0.00 0.00 84 1017.0
20260507074529 8 0 0.0 8.0 0.00 0.00 0.00 87 1016.8
20260507073027 7 0 0.0 6.4 0.00 0.00 0.00 87 1016.8
20260507071529 6 69 0.0 3.2 0.00 0.00 0.00 86 1016.7
20260507070028 6 0 0.0 0.0 0.00 0.00 0.00 89 1016.6
20260507064525 5 0 0.0 1.6 0.00 0.00 0.00 91 1016.7
20260507063027 4 0 0.0 1.6 0.00 0.00 0.00 92 1016.7
20260507061529 3 0 0.0 0.0 0.00 0.00 0.00 93 1016.6
20260507060026 3 0 0.0 0.0 0.00 0.00 0.00 93 1016.5
20260507054525 3 0 0.0 0.0 0.00 0.00 0.00 93 1016.5
20260507053030 3 0 0.0 0.0 0.00 0.00 0.00 93 1016.3
20260507051526 3 0 0.0 0.0 0.00 0.00 0.00 93 1016.3
20260507050040 3 0 0.0 0.0 0.00 0.00 0.00 93 1016.3
20260507044526 2 0 0.0 0.0 0.00 0.00 0.00 92 1016.2
20260507043025 2 0 0.0 0.0 0.00 0.00 0.00 92 1016.1
20260507041528 2 0 0.0 0.0 0.00 0.00 0.00 92 1016.3
20260507040026 2 0 0.0 0.0 0.00 0.00 0.00 92 1016.2
20260507034529 3 0 0.0 0.0 0.00 0.00 0.00 92 1016.1
20260507033026 3 0 0.0 0.0 0.00 0.00 0.00 91 1016.2
20260507031529 3 0 0.0 0.0 0.00 0.00 0.00 91 1016.2
20260507030031 3 0 0.0 0.0 0.00 0.00 0.00 91 1016.2
20260507024533 3 0 0.0 0.0 0.00 0.00 0.00 91 1016.1
20260507023029 3 0 0.0 0.0 0.00 0.00 0.00 91 1016.1
20260507021533 3 0 0.0 0.0 0.00 0.00 0.00 91 1016.2
20260507020028 3 0 0.0 0.0 0.00 0.00 0.00 91 1016.1
20260507014531 3 0 0.0 0.0 0.00 0.00 0.00 90 1015.9
20260507013029 3 0 0.0 0.0 0.00 0.00 0.00 90 1015.9
20260507011526 4 0 0.0 0.0 0.00 0.00 0.00 89 1016.0
20260507010032 4 0 0.0 0.0 0.00 0.00 0.00 89 1016.0
20260507004527 4 0 0.0 0.0 0.00 0.00 0.00 88 1015.9
20260507003025 5 0 0.0 0.0 0.00 0.00 0.00 88 1015.9
20260507000032 5 0 0.0 0.0 0.00 0.00 0.00 86 1016.0
20260506234525 5 0 0.0 0.0 0.00 0.00 0.00 85 1016.0
20260506233026 5 0 0.0 0.0 0.00 0.00 0.00 84 1015.8
20260506231528 6 0 0.0 0.0 0.00 0.00 0.00 83 1015.7
20260506224526 6 0 0.0 0.0 0.00 0.00 0.00 81 1015.7
20260506223025 6 0 0.0 0.0 0.00 0.00 0.00 80 1015.6
20260506221530 7 0 0.0 0.0 0.00 0.00 0.00 78 1015.7
20260506220028 7 0 0.0 0.0 0.00 0.00 0.00 77 1015.6
20260506214526 7 0 0.0 0.0 0.00 0.00 0.00 74 1015.5
20260506213037 8 0 0.0 0.0 0.00 0.00 0.00 72 1015.5
20260506211539 8 0 0.0 0.0 0.00 0.00 0.00 70 1015.5
20260506210035 9 0 0.0 0.0 0.00 0.00 0.00 68 1015.4
20260506204533 10 0 0.0 0.0 0.00 0.00 0.00 66 1015.2
20260506203026 10 0 0.0 3.2 0.00 0.00 0.00 65 1015.3
20260506201535 10 0 0.0 4.8 0.00 0.00 0.00 64 1015.1
20260506200032 11 0 0.0 4.8 0.00 0.00 0.00 64 1015.1
20260506194527 11 0 0.0 1.6 0.00 0.00 0.00 64 1015.0
20260506193042 11 0 0.0 3.2 0.00 0.00 0.00 63 1014.7
20260506191528 11 0 0.0 1.6 0.00 0.00 0.00 63 1014.6
20260506190052 11 0 0.0 8.0 0.00 0.00 0.00 63 1014.7
20260506184531 11 0 0.0 6.4 0.00 0.00 0.00 61 1014.5
20260506183026 11 0 0.0 6.4 0.00 0.00 0.00 60 1014.4
20260506181537 11 71 0.0 9.7 0.00 0.00 0.00 61 1014.3
20260506180030 12 55 0.0 8.0 0.00 0.00 0.00 62 1014.0
20260506174535 12 75 0.0 11.3 0.00 0.00 0.00 62 1013.9
20260506173048 12 86 4.8 11.3 0.00 0.00 0.00 60 1013.8
20260506171538 12 109 1.6 11.3 0.00 0.00 0.00 59 1013.7
20260506170031 12 119 4.8 14.5 0.00 0.00 0.00 58 1013.8
20260506164528 12 0 1.6 8.0 0.00 0.00 0.00 59 1013.8
20260506163033 12 73 0.0 6.4 0.00 0.00 0.00 58 1013.7
20260506161530 12 0 0.0 8.0 0.00 0.00 0.00 58 1013.8
20260506160027 12 92 4.8 12.9 0.00 0.00 0.00 58 1013.8
20260506154528 13 74 1.6 12.9 0.00 0.00 0.00 57 1013.8
20260506153027 12 0 0.0 12.9 0.00 0.00 0.00 57 1013.7
20260506151528 12 108 3.2 16.1 0.00 0.00 0.00 57 1013.9
20260506150025 13 0 1.6 14.5 0.00 0.00 0.00 54 1013.8
20260506144527 13 0 0.0 8.0 0.00 0.00 0.00 52 1013.8
20260506143029 13 0 1.6 14.5 0.00 0.00 0.00 50 1013.8
20260506141529 13 98 4.8 14.5 0.00 0.00 0.00 51 1013.8
20260506140032 13 0 0.0 17.7 0.00 0.00 0.00 50 1013.8
20260506134528 14 0 0.0 14.5 0.00 0.00 0.00 47 1013.8
20260506133035 13 59 3.2 12.9 0.00 0.00 0.00 49 1013.7
20260506131528 13 85 4.8 12.9 0.00 0.00 0.00 49 1013.6